Location: Round Knob
(37.2473°N, 88.7376°W)
Time: 12:08:15
(UTC+00:00)

Cosmos 1825 - Pass Details

Date: 29 October 2020
Orbit: 501 x 508 km, 82.5° (Epoch: 04 December)

Event Time Altitude Azimuth Distance (km) Brightness Sun altitude
Rises 23:32:14 0° 19° (NNE) 2,617 5.5 -7.1°
Reaches altitude 10° 23:36:32 10° 66° (ENE) 1,721 4.2 -7.9°
Enters shadow 23:36:53 10° 71° (ENE) 1,714 4.2 -8.0°
